| time (UTC) | temp F | wind direction | speed MPH | gust MPH | rain 1hr in | rain 24hr in | rain mn in | humidity % | barometer mb |
| 20260905212024 | 59 | 303 | 6.0 | 20.0 | 0.00 | 0.13 | 0.12 | 87 | 1002.2 |
| 20260905211521 | 59 | 334 | 9.0 | 20.0 | 0.00 | 0.13 | 0.12 | 87 | 1002.2 |
| 20260905211018 | 59 | 340 | 8.0 | 22.0 | 0.00 | 0.13 | 0.12 | 87 | 1002.1 |
| 20260905210516 | 59 | 310 | 8.0 | 22.0 | 0.00 | 0.13 | 0.12 | 87 | 1002.1 |
| 20260905210024 | 59 | 58 | 7.0 | 20.0 | 0.00 | 0.13 | 0.12 | 87 | 1002.1 |
| 20260905205523 | 59 | 356 | 9.0 | 20.0 | 0.00 | 0.13 | 0.12 | 87 | 1002.1 |
| 20260905205021 | 59 | 35 | 7.0 | 19.0 | 0.00 | 0.13 | 0.12 | 87 | 1002.0 |
| 20260905204519 | 59 | 148 | 9.0 | 19.0 | 0.00 | 0.13 | 0.12 | 87 | 1001.8 |
| 20260905204017 | 59 | 52 | 9.0 | 19.0 | 0.00 | 0.13 | 0.12 | 87 | 1001.9 |
| 20260905203524 | 59 | 45 | 10.0 | 20.0 | 0.00 | 0.13 | 0.12 | 87 | 1001.8 |
| 20260905203023 | 59 | 1 | 8.0 | 20.0 | 0.00 | 0.13 | 0.12 | 88 | 1001.7 |
| 20260905202521 | 59 | 29 | 8.0 | 19.0 | 0.00 | 0.13 | 0.12 | 88 | 1001.7 |
| 20260905202020 | 59 | 352 | 7.0 | 19.0 | 0.00 | 0.13 | 0.12 | 88 | 1001.6 |
| 20260905201517 | 59 | 44 | 8.0 | 16.0 | 0.00 | 0.13 | 0.12 | 89 | 1001.6 |
| 20260905201024 | 59 | 319 | 6.0 | 16.0 | 0.00 | 0.13 | 0.12 | 89 | 1001.6 |
| 20260905200523 | 59 | 18 | 7.0 | 17.0 | 0.00 | 0.13 | 0.12 | 89 | 1001.5 |
| 20260905200032 | 59 | 10 | 7.0 | 17.0 | 0.00 | 0.13 | 0.12 | 89 | 1001.3 |
| 20260905195519 | 59 | 70 | 9.0 | 19.0 | 0.00 | 0.17 | 0.12 | 89 | 1001.4 |
| 20260905195022 | 59 | 330 | 6.0 | 19.0 | 0.00 | 0.17 | 0.12 | 89 | 1001.2 |
| 20260905194524 | 59 | 303 | 9.0 | 16.0 | 0.00 | 0.17 | 0.12 | 89 | 1001.4 |
| 20260905194034 | 59 | 71 | 8.0 | 16.0 | 0.00 | 0.17 | 0.12 | 89 | 1001.3 |
| 20260905193522 | 60 | 316 | 7.0 | 18.0 | 0.00 | 0.17 | 0.12 | 90 | 1001.3 |
| 20260905193019 | 60 | 341 | 10.0 | 18.0 | 0.00 | 0.17 | 0.12 | 89 | 1001.2 |
| 20260905192517 | 60 | 12 | 9.0 | 18.0 | 0.00 | 0.17 | 0.12 | 89 | 1001.3 |
| 20260905192035 | 60 | 355 | 7.0 | 19.0 | 0.00 | 0.17 | 0.12 | 90 | 1001.3 |
| 20260905191524 | 60 | 317 | 7.0 | 19.0 | 0.00 | 0.17 | 0.12 | 89 | 1001.4 |
| 20260905191032 | 60 | 58 | 8.0 | 18.0 | 0.00 | 0.17 | 0.12 | 89 | 1001.2 |
| 20260905190530 | 60 | 18 | 8.0 | 19.0 | 0.00 | 0.17 | 0.12 | 89 | 1001.3 |
| 20260905190024 | 60 | 345 | 11.0 | 19.0 | 0.00 | 0.17 | 0.12 | 89 | 1001.1 |
| 20260905185523 | 60 | 76 | 9.0 | 19.0 | 0.00 | 0.19 | 0.12 | 89 | 1001.2 |
| 20260905185021 | 60 | 10 | 8.0 | 19.0 | 0.00 | 0.19 | 0.12 | 90 | 1001.1 |
| 20260905184519 | 60 | 18 | 8.0 | 18.0 | 0.00 | 0.19 | 0.12 | 90 | 1001.0 |
| 20260905184017 | 60 | 316 | 8.0 | 18.0 | 0.00 | 0.19 | 0.12 | 90 | 1000.9 |
| 20260905183525 | 60 | 51 | 8.0 | 15.0 | 0.00 | 0.19 | 0.12 | 90 | 1001.0 |
| 20260905183023 | 60 | 324 | 7.0 | 15.0 | 0.00 | 0.19 | 0.12 | 90 | 1001.0 |
| 20260905182522 | 60 | 32 | 6.0 | 15.0 | 0.00 | 0.19 | 0.12 | 90 | 1001.0 |
| 20260905182019 | 60 | 321 | 8.0 | 14.0 | 0.00 | 0.19 | 0.12 | 90 | 1000.9 |
| 20260905181517 | 61 | 27 | 7.0 | 15.0 | 0.00 | 0.19 | 0.12 | 90 | 1000.8 |
| 20260905181024 | 61 | 21 | 8.0 | 22.0 | 0.00 | 0.19 | 0.12 | 90 | 1000.8 |
| 20260905180524 | 61 | 56 | 8.0 | 22.0 | 0.00 | 0.19 | 0.12 | 90 | 1000.8 |
| 20260905180021 | 61 | 51 | 8.0 | 18.0 | 0.00 | 0.19 | 0.12 | 90 | 1000.6 |
| 20260905175519 | 61 | 58 | 9.0 | 18.0 | 0.00 | 0.30 | 0.12 | 90 | 1000.6 |
| 20260905175018 | 61 | 34 | 8.0 | 23.0 | 0.00 | 0.30 | 0.12 | 91 | 1000.6 |
| 20260905174525 | 61 | 267 | 8.0 | 25.0 | 0.00 | 0.30 | 0.12 | 91 | 1000.5 |
| 20260905174034 | 61 | 16 | 10.0 | 25.0 | 0.00 | 0.30 | 0.12 | 91 | 1000.6 |
| 20260905173521 | 61 | 40 | 9.0 | 17.0 | 0.00 | 0.30 | 0.12 | 91 | 1000.6 |
| 20260905173019 | 61 | 27 | 9.0 | 22.0 | 0.00 | 0.30 | 0.12 | 91 | 1000.4 |
| 20260905172517 | 61 | 2 | 7.0 | 22.0 | 0.01 | 0.30 | 0.12 | 91 | 1000.6 |
| 20260905172024 | 61 | 90 | 10.0 | 19.0 | 0.01 | 0.30 | 0.12 | 92 | 1000.5 |
| 20260905171523 | 61 | 319 | 8.0 | 18.0 | 0.01 | 0.30 | 0.12 | 92 | 1000.4 |
| 20260905171033 | 61 | 20 | 7.0 | 20.0 | 0.01 | 0.30 | 0.12 | 92 | 1000.3 |
| 20260905170521 | 61 | 308 | 8.0 | 20.0 | 0.01 | 0.30 | 0.12 | 92 | 1000.4 |
| 20260905170020 | 61 | 77 | 8.0 | 19.0 | 0.02 | 0.30 | 0.12 | 92 | 1000.2 |
| 20260905165517 | 61 | 19 | 8.0 | 17.0 | 0.03 | 0.49 | 0.12 | 93 | 1000.1 |
| 20260905165024 | 61 | 55 | 7.0 | 19.0 | 0.03 | 0.49 | 0.12 | 93 | 1000.1 |
| 20260905164525 | 61 | 9 | 8.0 | 19.0 | 0.04 | 0.49 | 0.12 | 93 | 1000.0 |
| 20260905164022 | 61 | 34 | 8.0 | 19.0 | 0.04 | 0.49 | 0.12 | 93 | 1000.0 |
| 20260905163519 | 61 | 6 | 7.0 | 18.0 | 0.04 | 0.49 | 0.12 | 93 | 1000.0 |
| 20260905163028 | 61 | 59 | 7.0 | 18.0 | 0.05 | 0.49 | 0.12 | 93 | 999.9 |
| 20260905162525 | 61 | 349 | 8.0 | 17.0 | 0.05 | 0.48 | 0.11 | 93 | 999.8 |
| 20260905162023 | 61 | 23 | 9.0 | 17.0 | 0.05 | 0.48 | 0.11 | 93 | 999.8 |
| 20260905161522 | 61 | 7 | 9.0 | 17.0 | 0.05 | 0.48 | 0.11 | 93 | 999.7 |
| 20260905161030 | 61 | 68 | 8.0 | 20.0 | 0.05 | 0.48 | 0.11 | 93 | 999.6 |
| 20260905160517 | 60 | 40 | 9.0 | 19.0 | 0.05 | 0.48 | 0.11 | 93 | 999.4 |
| 20260905160029 | 60 | 332 | 6.0 | 19.0 | 0.04 | 0.47 | 0.10 | 93 | 999.6 |
| 20260905155523 | 60 | 21 | 8.0 | 18.0 | 0.03 | 1.23 | 0.09 | 93 | 999.6 |
| 20260905155021 | 60 | 360 | 9.0 | 17.0 | 0.03 | 1.23 | 0.09 | 93 | 999.4 |
| 20260905154519 | 60 | 357 | 8.0 | 17.0 | 0.02 | 1.22 | 0.08 | 93 | 999.5 |
| 20260905154017 | 60 | 297 | 8.0 | 15.0 | 0.02 | 1.22 | 0.08 | 93 | 999.4 |
| 20260905153525 | 60 | 343 | 6.0 | 16.0 | 0.01 | 1.21 | 0.07 | 93 | 999.4 |
| 20260905153024 | 60 | 60 | 8.0 | 19.0 | 0.01 | 1.21 | 0.07 | 93 | 999.5 |
| 20260905152522 | 60 | 311 | 8.0 | 19.0 | 0.00 | 1.20 | 0.06 | 93 | 999.4 |
| 20260905152020 | 60 | 37 | 7.0 | 15.0 | 0.00 | 1.20 | 0.06 | 92 | 999.4 |
| 20260905151518 | 60 | 354 | 5.0 | 13.0 | 0.00 | 1.20 | 0.06 | 92 | 999.4 |
| 20260905151030 | 61 | 351 | 5.0 | 14.0 | 0.00 | 1.20 | 0.06 | 92 | 999.4 |
| 20260905150524 | 61 | 5 | 6.0 | 14.0 | 0.00 | 1.20 | 0.06 | 92 | 999.4 |
| 20260905150022 | 61 | 333 | 5.0 | 12.0 | 0.00 | 1.20 | 0.06 | 92 | 999.5 |
| 20260905145519 | 61 | 293 | 6.0 | 13.0 | 0.00 | 2.16 | 0.06 | 91 | 999.5 |
| 20260905145017 | 61 | 51 | 5.0 | 14.0 | 0.00 | 2.16 | 0.06 | 91 | 999.5 |
| 20260905144524 | 61 | 326 | 7.0 | 14.0 | 0.00 | 2.16 | 0.06 | 90 | 999.4 |
| 20260905144024 | 62 | 341 | 5.0 | 12.0 | 0.00 | 2.16 | 0.06 | 90 | 999.5 |
| 20260905143522 | 62 | 55 | 5.0 | 12.0 | 0.00 | 2.16 | 0.06 | 90 | 999.6 |
| 20260905143019 | 61 | 52 | 7.0 | 14.0 | 0.00 | 2.16 | 0.06 | 89 | 999.5 |
| 20260905142517 | 61 | 26 | 8.0 | 14.0 | 0.00 | 2.16 | 0.06 | 89 | 999.5 |
| 20260905142024 | 61 | 21 | 5.0 | 11.0 | 0.00 | 2.16 | 0.06 | 90 | 999.5 |
| 20260905141535 | 61 | 331 | 6.0 | 11.0 | 0.00 | 2.16 | 0.06 | 89 | 999.4 |
| 20260905141024 | 61 | 300 | 4.0 | 10.0 | 0.00 | 2.16 | 0.06 | 89 | 999.5 |
| 20260905140521 | 61 | 349 | 5.0 | 14.0 | 0.00 | 2.16 | 0.06 | 90 | 999.5 |
| 20260905140020 | 60 | 326 | 6.0 | 14.0 | 0.00 | 2.16 | 0.06 | 89 | 999.5 |
| 20260905135528 | 60 | 24 | 5.0 | 13.0 | 0.00 | 2.37 | 0.06 | 90 | 999.6 |
| 20260905135040 | 60 | 338 | 5.0 | 13.0 | 0.00 | 2.37 | 0.06 | 90 | 999.5 |
| 20260905134523 | 60 | 6 | 6.0 | 15.0 | 0.00 | 2.37 | 0.06 | 90 | 999.5 |
| 20260905134021 | 60 | 323 | 6.0 | 15.0 | 0.00 | 2.37 | 0.06 | 90 | 999.4 |
| 20260905133519 | 60 | 20 | 6.0 | 12.0 | 0.00 | 2.37 | 0.06 | 90 | 999.4 |
| 20260905133018 | 60 | 340 | 7.0 | 13.0 | 0.00 | 2.37 | 0.06 | 89 | 999.3 |
| 20260905132536 | 60 | 25 | 7.0 | 18.0 | 0.00 | 2.37 | 0.06 | 89 | 999.3 |
| 20260905132024 | 60 | 1 | 9.0 | 18.0 | 0.00 | 2.37 | 0.06 | 89 | 999.3 |
| 20260905131522 | 60 | 293 | 6.0 | 12.0 | 0.00 | 2.37 | 0.06 | 89 | 999.3 |
| 20260905131023 | 60 | 15 | 6.0 | 16.0 | 0.00 | 2.37 | 0.06 | 90 | 999.2 |
| 20260905130519 | 60 | 29 | 5.0 | 13.0 | 0.00 | 2.37 | 0.06 | 90 | 999.3 |
| 20260905130017 | 60 | 348 | 5.0 | 14.0 | 0.00 | 2.37 | 0.06 | 91 | 999.3 |
| 20260905125525 | 60 | 328 | 4.0 | 14.0 | 0.00 | 2.63 | 0.06 | 90 | 999.4 |
| 20260905125024 | 60 | 327 | 5.0 | 12.0 | 0.00 | 2.63 | 0.06 | 91 | 999.4 |
| 20260905124522 | 60 | 335 | 3.0 | 12.0 | 0.00 | 2.63 | 0.06 | 91 | 999.2 |
| 20260905124024 | 60 | 329 | 5.0 | 12.0 | 0.00 | 2.63 | 0.06 | 91 | 999.2 |
| 20260905123517 | 60 | 16 | 4.0 | 12.0 | 0.00 | 2.63 | 0.06 | 92 | 999.4 |
| 20260905123024 | 60 | 321 | 5.0 | 11.0 | 0.00 | 2.63 | 0.06 | 92 | 999.3 |
| 20260905122524 | 60 | 58 | 4.0 | 15.0 | 0.00 | 2.63 | 0.06 | 93 | 999.3 |
| 20260905122021 | 60 | 356 | 5.0 | 15.0 | 0.00 | 2.63 | 0.06 | 93 | 999.2 |
| 20260905121520 | 60 | 22 | 4.0 | 15.0 | 0.00 | 2.63 | 0.06 | 94 | 999.3 |
| 20260905121017 | 60 | 297 | 6.0 | 14.0 | 0.01 | 2.63 | 0.06 | 94 | 999.2 |
| 20260905120525 | 60 | 68 | 6.0 | 13.0 | 0.01 | 2.63 | 0.06 | 94 | 999.4 |
| 20260905120024 | 60 | 9 | 8.0 | 15.0 | 0.02 | 2.63 | 0.06 | 94 | 999.4 |
| 20260905115521 | 59 | 58 | 7.0 | 14.0 | 0.02 | 3.13 | 0.06 | 95 | 999.3 |
| 20260905115030 | 59 | 321 | 6.0 | 13.0 | 0.03 | 3.13 | 0.06 | 95 | 999.2 |
| 20260905114518 | 59 | 333 | 5.0 | 13.0 | 0.04 | 3.13 | 0.06 | 95 | 999.4 |
| 20260905114025 | 59 | 45 | 6.0 | 14.0 | 0.05 | 3.13 | 0.06 | 95 | 999.3 |
| 20260905113535 | 59 | 14 | 8.0 | 14.0 | 0.05 | 3.13 | 0.06 | 95 | 999.4 |
| 20260905113022 | 60 | 48 | 7.0 | 17.0 | 0.05 | 3.13 | 0.06 | 95 | 999.4 |
| 20260905112521 | 60 | 110 | 9.0 | 15.0 | 0.05 | 3.13 | 0.06 | 95 | 999.1 |
| 20260905112019 | 60 | 49 | 7.0 | 16.0 | 0.05 | 3.13 | 0.06 | 95 | 999.2 |
| 20260905111518 | 60 | 66 | 7.0 | 16.0 | 0.05 | 3.13 | 0.06 | 95 | 999.1 |
| 20260905111019 | 61 | 67 | 8.0 | 16.0 | 0.04 | 3.12 | 0.05 | 95 | 999.0 |
| 20260905110525 | 62 | 25 | 3.0 | 7.0 | 0.04 | 3.12 | 0.05 | 96 | 999.0 |
| 20260905110024 | 62 | 319 | 1.0 | 3.0 | 0.03 | 3.11 | 0.04 | 96 | 998.9 |
| 20260905105524 | 62 | 1 | 1.0 | 3.0 | 0.03 | 3.51 | 0.04 | 96 | 998.9 |
| 20260905105022 | 62 | 4 | 1.0 | 2.0 | 0.02 | 3.50 | 0.03 | 95 | 998.9 |
| 20260905104520 | 62 | 308 | 0.0 | 2.0 | 0.02 | 3.49 | 0.02 | 96 | 998.8 |
| 20260905104017 | 62 | 342 | 0.0 | 0.0 | 0.01 | 3.48 | 0.01 | 96 | 998.8 |
| 20260905103536 | 62 | 302 | 0.0 | 0.0 | 0.01 | 3.48 | 0.01 | 95 | 998.7 |
| 20260905103025 | 62 | 302 | 0.0 | 0.0 | 0.01 | 3.48 | 0.01 | 96 | 998.8 |
| 20260905102524 | 62 | 302 | 0.0 | 0.0 | 0.01 | 3.48 | 0.01 | 95 | 998.8 |
| 20260905102024 | 62 | 302 | 0.0 | 0.0 | 0.01 | 3.48 | 0.01 | 95 | 998.8 |
| 20260905101523 | 62 | 302 | 0.0 | 0.0 | 0.01 | 3.48 | 0.01 | 95 | 998.8 |
| 20260905101022 | 62 | 302 | 0.0 | 0.0 | 0.01 | 3.48 | 0.01 | 95 | 998.8 |
| 20260905100520 | 62 | 302 | 0.0 | 0.0 | 0.01 | 3.48 | 0.01 | 95 | 998.8 |
| 20260905100029 | 62 | 302 | 0.0 | 0.0 | 0.01 | 3.48 | 0.01 | 95 | 998.8 |
| 20260905095526 | 61 | 302 | 0.0 | 0.0 | 0.01 | 3.80 | 0.01 | 95 | 998.9 |
| 20260905095025 | 61 | 300 | 0.0 | 1.0 | 0.01 | 3.80 | 0.01 | 95 | 998.8 |
| 20260905094524 | 61 | 300 | 0.0 | 1.0 | 0.00 | 3.79 | 0.00 | 95 | 998.9 |
| 20260905094022 | 61 | 288 | 0.0 | 2.0 | 0.00 | 3.79 | 0.00 | 95 | 998.9 |
| 20260905093520 | 61 | 288 | 1.0 | 2.0 | 0.00 | 3.79 | 0.00 | 95 | 999.0 |
| 20260905093028 | 61 | 300 | 1.0 | 4.0 | 0.00 | 3.79 | 0.00 | 95 | 998.9 |
| 20260905092525 | 61 | 310 | 2.0 | 4.0 | 0.00 | 3.79 | 0.00 | 95 | 998.9 |
| 20260905092024 | 61 | 316 | 3.0 | 4.0 | 0.00 | 3.79 | 0.00 | 95 | 998.9 |
| 20260905091534 | 61 | 340 | 2.0 | 3.0 | 0.00 | 3.79 | 0.00 | 95 | 998.9 |
| 20260905091022 | 61 | 298 | 2.0 | 4.0 | 0.00 | 3.79 | 0.00 | 95 | 998.9 |
| 20260905090520 | 61 | 320 | 2.0 | 4.0 | 0.00 | 3.79 | 0.00 | 95 | 998.9 |
| 20260905090018 | 61 | 315 | 1.0 | 2.0 | 0.00 | 3.79 | 0.00 | 95 | 998.9 |
| 20260905085525 | 61 | 354 | 1.0 | 2.0 | 0.00 | 3.84 | 0.00 | 95 | 998.8 |
| 20260905085029 | 61 | 348 | 0.0 | 2.0 | 0.00 | 3.84 | 0.00 | 95 | 998.9 |
| 20260905084524 | 61 | 323 | 1.0 | 2.0 | 0.00 | 3.84 | 0.00 | 95 | 999.0 |
| 20260905084023 | 61 | 295 | 0.0 | 0.0 | 0.00 | 3.84 | 0.00 | 95 | 999.0 |
| 20260905083522 | 61 | 295 | 0.0 | 0.0 | 0.00 | 3.84 | 0.00 | 95 | 999.0 |
| 20260905083020 | 61 | 295 | 0.0 | 0.0 | 0.00 | 3.84 | 0.00 | 95 | 999.0 |
| 20260905082517 | 61 | 295 | 0.0 | 0.0 | 0.00 | 3.84 | 0.00 | 95 | 999.0 |
| 20260905082025 | 61 | 295 | 0.0 | 0.0 | 0.00 | 3.84 | 0.00 | 95 | 999.0 |
| 20260905081524 | 61 | 295 | 0.0 | 0.0 | 0.00 | 3.84 | 0.00 | 95 | 998.9 |
| 20260905081024 | 61 | 295 | 0.0 | 0.0 | 0.00 | 3.84 | 0.00 | 95 | 999.0 |
| 20260905080523 | 61 | 295 | 0.0 | 0.0 | 0.00 | 3.84 | 0.00 | 95 | 999.1 |
| 20260905080020 | 62 | 295 | 0.0 | 1.0 | 0.00 | 3.84 | 0.00 | 95 | 999.0 |
| 20260905075518 | 62 | 295 | 0.0 | 2.0 | 0.00 | 3.84 | 0.00 | 95 | 999.1 |
| 20260905075025 | 62 | 294 | 1.0 | 2.0 | 0.00 | 3.84 | 0.00 | 95 | 999.1 |
| 20260905074524 | 62 | 274 | 0.0 | 0.0 | 0.00 | 3.84 | 0.00 | 95 | 999.0 |
| 20260905074024 | 62 | 266 | 0.0 | 0.0 | 0.00 | 3.84 | 0.00 | 95 | 999.2 |
| 20260905073523 | 62 | 266 | 0.0 | 0.0 | 0.00 | 3.84 | 0.00 | 95 | 999.2 |
| 20260905073025 | 62 | 266 | 0.0 | 0.0 | 0.00 | 3.84 | 0.00 | 95 | 999.1 |
| 20260905072517 | 62 | 266 | 0.0 | 0.0 | 0.00 | 3.84 | 0.00 | 95 | 999.0 |
| 20260905072026 | 62 | 267 | 0.0 | 0.0 | 0.00 | 3.84 | 0.00 | 95 | 999.0 |
| 20260905071525 | 62 | 275 | 0.0 | 0.0 | 0.00 | 3.84 | 0.00 | 95 | 999.0 |
| 20260905071023 | 62 | 275 | 0.0 | 0.0 | 0.00 | 3.84 | 0.00 | 95 | 999.1 |
| 20260905070522 | 62 | 224 | 0.0 | 0.0 | 0.00 | 3.84 | 0.00 | 95 | 999.2 |
| 20260905070020 | 62 | 224 | 0.0 | 0.0 | 0.00 | 3.84 | 0.00 | 95 | 999.2 |
| 20260905065529 | 62 | 224 | 0.0 | 0.0 | 0.00 | 3.86 | 0.00 | 95 | 999.2 |
| 20260905065018 | 62 | 224 | 0.0 | 0.0 | 0.00 | 3.86 | 0.00 | 95 | 999.2 |
| 20260905064536 | 62 | 224 | 0.0 | 0.0 | 0.00 | 3.86 | 0.00 | 95 | 999.3 |
| 20260905064025 | 62 | 224 | 0.0 | 0.0 | 0.00 | 3.86 | 0.00 | 95 | 999.3 |
| 20260905063524 | 62 | 224 | 0.0 | 0.0 | 0.00 | 3.86 | 0.00 | 95 | 999.3 |
| 20260905063024 | 62 | 224 | 0.0 | 0.0 | 0.00 | 3.86 | 0.00 | 95 | 999.4 |
| 20260905062522 | 62 | 224 | 0.0 | 0.0 | 0.00 | 3.86 | 0.00 | 95 | 999.4 |
| 20260905062020 | 62 | 224 | 0.0 | 0.0 | 0.00 | 3.86 | 0.00 | 95 | 999.4 |
| 20260905061518 | 62 | 224 | 0.0 | 0.0 | 0.00 | 3.86 | 0.00 | 95 | 999.4 |
| 20260905061018 | 62 | 224 | 0.0 | 0.0 | 0.00 | 3.86 | 0.00 | 95 | 999.5 |
| 20260905060526 | 62 | 222 | 0.0 | 0.0 | 0.00 | 3.86 | 0.00 | 95 | 999.5 |
| 20260905060026 | 62 | 222 | 0.0 | 0.0 | 0.00 | 3.86 | 0.00 | 95 | 999.8 |
| 20260905055523 | 62 | 222 | 0.0 | 0.0 | 0.00 | 3.88 | 0.00 | 95 | 999.7 |
| 20260905055022 | 62 | 223 | 0.0 | 0.0 | 0.00 | 3.88 | 0.00 | 95 | 999.8 |
| 20260905054522 | 62 | 223 | 0.0 | 2.0 | 0.00 | 3.88 | 0.00 | 95 | 999.9 |
| 20260905054023 | 62 | 299 | 0.0 | 3.0 | 0.00 | 3.88 | 0.00 | 95 | 1000.0 |
| 20260905053523 | 62 | 301 | 2.0 | 4.0 | 0.00 | 3.88 | 0.00 | 95 | 1000.0 |
| 20260905053033 | 62 | 319 | 2.0 | 5.0 | 0.00 | 3.88 | 0.00 | 95 | 1000.1 |
| 20260905052533 | 62 | 302 | 2.0 | 5.0 | 0.00 | 3.88 | 0.00 | 95 | 1000.0 |
| 20260905052022 | 62 | 293 | 2.0 | 4.0 | 0.00 | 3.88 | 0.00 | 95 | 1000.0 |
| 20260905051521 | 62 | 307 | 2.0 | 4.0 | 0.00 | 3.88 | 0.00 | 95 | 1000.0 |
| 20260905051020 | 63 | 313 | 2.0 | 5.0 | 0.00 | 3.88 | 0.00 | 95 | 1000.0 |
| 20260905050520 | 63 | 316 | 2.0 | 3.0 | 0.00 | 3.88 | 0.00 | 95 | 1000.0 |
| 20260905050019 | 63 | 280 | 1.0 | 3.0 | 0.00 | 3.88 | 0.00 | 95 | 1000.0 |
| 20260905045518 | 63 | 291 | 0.0 | 2.0 | 0.00 | 3.89 | 0.00 | 95 | 1000.0 |
| 20260905045018 | 63 | 277 | 0.0 | 0.0 | 0.00 | 3.89 | 0.00 | 95 | 1000.1 |
| 20260905044525 | 63 | 258 | 0.0 | 0.0 | 0.00 | 3.89 | 0.00 | 95 | 1000.3 |
| 20260905044036 | 63 | 258 | 0.0 | 0.0 | 0.00 | 3.89 | 0.00 | 96 | 1000.3 |
| 20260905043534 | 63 | 258 | 0.0 | 0.0 | 0.00 | 3.89 | 0.00 | 95 | 1000.4 |
| 20260905043028 | 63 | 258 | 0.0 | 0.0 | 0.00 | 3.89 | 0.00 | 96 | 1000.5 |
| 20260905042523 | 63 | 258 | 0.0 | 0.0 | 0.00 | 3.89 | 0.00 | 96 | 1000.6 |
| 20260905042022 | 63 | 258 | 0.0 | 0.0 | 0.00 | 3.89 | 0.00 | 96 | 1000.6 |
| 20260905041522 | 64 | 258 | 0.0 | 0.0 | 0.00 | 3.89 | 0.00 | 96 | 1000.7 |
| 20260905041034 | 64 | 258 | 0.0 | 0.0 | 0.00 | 3.89 | 0.00 | 96 | 1000.9 |
| 20260905040521 | 64 | 305 | 0.0 | 0.0 | 0.00 | 3.89 | 0.00 | 96 | 1000.9 |
| 20260905040020 | 64 | 305 | 0.0 | 0.0 | 0.00 | 3.89 | 0.00 | 96 | 1001.0 |
| 20260905035532 | 64 | 305 | 0.0 | 0.0 | 0.00 | 3.90 | 0.00 | 96 | 1001.1 |
| 20260905035031 | 64 | 304 | 0.0 | 0.0 | 0.00 | 3.90 | 0.00 | 96 | 1001.2 |
| 20260905034520 | 64 | 305 | 0.0 | 1.0 | 0.00 | 3.90 | 0.00 | 96 | 1001.2 |
| 20260905034021 | 64 | 297 | 0.0 | 2.0 | 0.00 | 3.90 | 0.00 | 96 | 1001.3 |
| 20260905033525 | 64 | 297 | 0.0 | 2.0 | 0.00 | 3.90 | 0.00 | 96 | 1001.3 |
| 20260905033031 | 64 | 255 | 0.0 | 1.0 | 0.00 | 3.90 | 0.00 | 96 | 1001.3 |
| 20260905032520 | 64 | 250 | 0.0 | 0.0 | 0.00 | 3.90 | 0.00 | 96 | 1001.3 |
| 20260905032018 | 64 | 250 | 0.0 | 0.0 | 0.00 | 3.90 | 0.00 | 96 | 1001.3 |
| 20260905031529 | 64 | 117 | 0.0 | 0.0 | 0.00 | 3.90 | 0.00 | 96 | 1001.4 |
| 20260905031018 | 64 | 117 | 0.0 | 0.0 | 0.00 | 3.90 | 0.00 | 96 | 1001.5 |
| 20260905030518 | 64 | 117 | 0.0 | 0.0 | 0.00 | 3.90 | 0.00 | 96 | 1001.4 |
| 20260905030019 | 63 | 117 | 0.0 | 0.0 | 0.00 | 3.90 | 0.00 | 96 | 1001.5 |
| 20260905025518 | 63 | 117 | 0.0 | 0.0 | 0.00 | 3.90 | 3.90 | 96 | 1001.5 |
| 20260905025019 | 64 | 117 | 0.0 | 0.0 | 0.00 | 3.90 | 3.90 | 96 | 1001.5 |
| 20260905024518 | 63 | 117 | 0.0 | 0.0 | 0.00 | 3.90 | 3.90 | 96 | 1001.5 |
| 20260905024018 | 63 | 117 | 0.0 | 0.0 | 0.00 | 3.90 | 3.90 | 96 | 1001.5 |
| 20260905023518 | 63 | 117 | 0.0 | 0.0 | 0.00 | 3.90 | 3.90 | 96 | 1001.4 |
| 20260905023019 | 63 | 340 | 0.0 | 0.0 | 0.00 | 3.90 | 3.90 | 96 | 1001.5 |
| 20260905022518 | 63 | 340 | 0.0 | 1.0 | 0.00 | 3.90 | 3.90 | 96 | 1001.5 |
| 20260905022025 | 63 | 340 | 0.0 | 2.0 | 0.00 | 3.90 | 3.90 | 96 | 1001.6 |
| 20260905021525 | 63 | 348 | 0.0 | 3.0 | 0.00 | 3.90 | 3.90 | 96 | 1001.6 |
| 20260905021036 | 63 | 311 | 0.0 | 3.0 | 0.00 | 3.90 | 3.90 | 96 | 1001.6 |
| 20260905020523 | 63 | 271 | 1.0 | 3.0 | 0.00 | 3.90 | 3.90 | 96 | 1001.5 |
| 20260905020023 | 64 | 304 | 0.0 | 3.0 | 0.00 | 3.90 | 3.90 | 96 | 1001.6 |
| 20260905015522 | 64 | 281 | 0.0 | 2.0 | 0.00 | 3.90 | 3.90 | 96 | 1001.8 |
| 20260905015035 | 64 | 335 | 1.0 | 3.0 | 0.00 | 3.90 | 3.90 | 96 | 1001.8 |
| 20260905014523 | 64 | 298 | 0.0 | 3.0 | 0.00 | 3.90 | 3.90 | 96 | 1001.9 |
| 20260905014034 | 63 | 311 | 1.0 | 3.0 | 0.00 | 3.90 | 3.90 | 96 | 1002.0 |
| 20260905013523 | 63 | 240 | 0.0 | 1.0 | 0.00 | 3.90 | 3.90 | 95 | 1002.1 |
| 20260905013022 | 63 | 240 | 0.0 | 1.0 | 0.00 | 3.90 | 3.90 | 95 | 1002.1 |
| 20260905012523 | 63 | 240 | 0.0 | 1.0 | 0.00 | 3.90 | 3.90 | 95 | 1002.2 |
| 20260905012024 | 64 | 240 | 0.0 | 1.0 | 0.00 | 3.90 | 3.90 | 95 | 1002.5 |
| 20260905011522 | 64 | 240 | 0.0 | 1.0 | 0.00 | 3.90 | 3.90 | 95 | 1002.6 |
| 20260905011020 | 64 | 240 | 0.0 | 1.0 | 0.00 | 3.90 | 3.90 | 96 | 1002.8 |
| 20260905010521 | 64 | 240 | 0.0 | 1.0 | 0.00 | 3.90 | 3.90 | 96 | 1002.9 |
| 20260905010020 | 64 | 240 | 0.0 | 1.0 | 0.00 | 3.90 | 3.90 | 96 | 1003.0 |
| 20260905005520 | 64 | 240 | 0.0 | 0.0 | 0.00 | 3.90 | 3.90 | 96 | 1003.1 |
| 20260905005022 | 64 | 240 | 0.0 | 1.0 | 0.00 | 3.90 | 3.90 | 96 | 1003.2 |
| 20260905004521 | 64 | 240 | 0.0 | 1.0 | 0.00 | 3.90 | 3.90 | 95 | 1003.2 |
| 20260905004020 | 64 | 240 | 0.0 | 1.0 | 0.00 | 3.90 | 3.90 | 95 | 1003.5 |
| 20260905003521 | 64 | 240 | 0.0 | 1.0 | 0.00 | 3.90 | 3.90 | 95 | 1003.4 |
| 20260905003026 | 64 | 240 | 0.0 | 0.0 | 0.00 | 3.90 | 3.90 | 95 | 1003.4 |
| 20260905002521 | 64 | 240 | 0.0 | 0.0 | 0.00 | 3.90 | 3.90 | 95 | 1003.6 |
| 20260905002033 | 64 | 240 | 0.0 | 0.0 | 0.00 | 3.90 | 3.90 | 95 | 1003.6 |
| 20260905001521 | 64 | 240 | 0.0 | 0.0 | 0.00 | 3.90 | 3.90 | 95 | 1003.6 |
| 20260905001032 | 64 | 240 | 0.0 | 1.0 | 0.00 | 3.90 | 3.90 | 95 | 1003.5 |
| 20260905000521 | 64 | 240 | 0.0 | 1.0 | 0.00 | 3.90 | 3.90 | 95 | 1003.6 |
| 20260905000020 | 65 | 240 | 0.0 | 2.0 | 0.00 | 3.90 | 3.90 | 95 | 1003.7 |
| 20260904235521 | 65 | 240 | 0.0 | 2.0 | 0.00 | 3.90 | 3.90 | 95 | 1003.7 |
| 20260904235021 | 65 | 225 | 0.0 | 2.0 | 0.00 | 3.90 | 3.90 | 95 | 1003.7 |
| 20260904234531 | 65 | 225 | 0.0 | 1.0 | 0.00 | 3.90 | 3.90 | 95 | 1003.7 |
| 20260904234021 | 65 | 231 | 0.0 | 4.0 | 0.00 | 3.90 | 3.90 | 95 | 1003.7 |
| 20260904233520 | 65 | 23 | 0.0 | 3.0 | 0.00 | 3.90 | 3.90 | 95 | 1003.7 |
| 20260904233020 | 65 | 255 | 0.0 | 3.0 | 0.00 | 3.90 | 3.90 | 95 | 1003.7 |
| 20260904232518 | 65 | 271 | 0.0 | 3.0 | 0.00 | 3.90 | 3.90 | 95 | 1003.7 |
| 20260904231520 | 65 | 296 | 0.0 | 3.0 | 0.00 | 3.90 | 3.90 | 95 | 1003.7 |
| 20260904231029 | 65 | 224 | 1.0 | 2.0 | 0.00 | 3.90 | 3.90 | 95 | 1003.7 |
| 20260904230524 | 65 | 229 | 0.0 | 4.0 | 0.00 | 3.90 | 3.90 | 95 | 1003.6 |
| 20260904230018 | 65 | 327 | 0.0 | 3.0 | 0.00 | 3.90 | 3.90 | 95 | 1003.7 |
| 20260904225519 | 65 | 229 | 1.0 | 3.0 | 0.00 | 3.91 | 3.90 | 95 | 1003.7 |
| 20260904225018 | 65 | 325 | 1.0 | 5.0 | 0.00 | 3.91 | 3.90 | 95 | 1003.6 |
| 20260904224518 | 65 | 306 | 0.0 | 6.0 | 0.00 | 3.91 | 3.90 | 95 | 1003.7 |
| 20260904224018 | 65 | 146 | 1.0 | 6.0 | 0.00 | 3.91 | 3.90 | 95 | 1003.7 |
| 20260904223519 | 65 | 172 | 2.0 | 6.0 | 0.00 | 3.91 | 3.90 | 95 | 1003.7 |
| 20260904223019 | 65 | 212 | 1.0 | 3.0 | 0.00 | 3.91 | 3.90 | 95 | 1003.6 |
| 20260904222529 | 65 | 285 | 1.0 | 4.0 | 0.00 | 3.91 | 3.90 | 95 | 1003.7 |
| 20260904222023 | 65 | 47 | 1.0 | 4.0 | 0.01 | 3.91 | 3.90 | 95 | 1003.7 |
| 20260904221520 | 65 | 273 | 1.0 | 6.0 | 0.01 | 3.91 | 3.90 | 95 | 1003.7 |
| 20260904221019 | 65 | 62 | 2.0 | 6.0 | 0.01 | 3.91 | 3.90 | 95 | 1003.7 |
| 20260904220529 | 65 | 133 | 1.0 | 10.0 | 0.01 | 3.91 | 3.90 | 95 | 1003.8 |
| 20260904220019 | 65 | 137 | 2.0 | 10.0 | 0.01 | 3.91 | 3.90 | 95 | 1003.7 |
| 20260904215519 | 65 | 283 | 1.0 | 4.0 | 0.01 | 3.91 | 3.90 | 95 | 1003.9 |
| 20260904215019 | 66 | 236 | 1.0 | 4.0 | 0.01 | 3.91 | 3.90 | 95 | 1003.9 |
| 20260904214518 | 66 | 279 | 1.0 | 6.0 | 0.01 | 3.91 | 3.90 | 95 | 1004.0 |
| 20260904214029 | 66 | 31 | 1.0 | 6.0 | 0.01 | 3.91 | 3.90 | 95 | 1003.9 |
| 20260904213519 | 66 | 32 | 2.0 | 10.0 | 0.01 | 3.91 | 3.90 | 95 | 1003.9 |
| 20260904213019 | 67 | 15 | 2.0 | 10.0 | 0.01 | 3.91 | 3.90 | 95 | 1004.0 |
| 20260904212519 | 67 | 284 | 3.0 | 8.0 | 0.01 | 3.91 | 3.90 | 95 | 1004.0 |